Date_and_time,latitude,longitude,wind_speed,RelWindDirFrom,WindDirFrom,air_pressure,air_temperature,relative_humidity,Temp,platform_speed_wrt_ground,air_pressure_at_mean_sea_level,platform_orientation
2019-01-01 00:00,50.630445,-96.9807716666667,3.4,4.8,267,1004.98,-23.4,64,0.34,0.0,1035.91,194.5
2019-01-01 00:10,50.6304466666667,-96.98077,3.6,4.8,274,1004.93,-23.4,64,0.34,0.0,1035.87,194.5
2019-01-01 00:20,50.6304483333333,-96.98077,3.6,5.6,254,1004.89,-23.6,64,0.34,0.0,1035.85,194.5
2019-01-01 00:30,50.63045,-96.98077,4.0,5.9,247,1004.90,-23.8,64,0.35,0.0,1035.89,194.5
2019-01-01 00:40,50.63045,-96.9807716666667,3.9,4.8,228,1004.88,-24.1,65,0.35,0.0,1035.91,194.5
2019-01-01 00:50,50.6304516666667,-96.98077,3.7,5.1,239,1004.97,-24.2,66,0.35,0.0,1036.02,194.5
2019-01-01 01:00,50.630445,-96.9807733333333,3.9,6.1,243,1005.06,-24.3,66,0.37,0.0,1036.11,194.5
2019-01-01 01:10,50.63044,-96.9807783333333,4.3,5.8,240,1005.14,-24.5,66,0.37,0.0,1036.21,194.5
2019-01-01 01:20,50.6304416666667,-96.980775,4.2,6.4,244,1005.07,-24.6,66,0.37,0.0,1036.16,194.5
2019-01-01 01:30,50.630445,-96.98077,4.1,5.3,250,1004.94,-24.7,67,0.37,0.0,1036.04,194.5
2019-01-01 01:40,50.6304466666667,-96.98077,4.0,5.8,253,1004.87,-24.7,67,0.36,0.0,1035.99,194.5
2019-01-01 01:50,50.6304466666667,-96.98077,4.1,6.1,246,1004.91,-25.0,68,0.36,0.0,1036.05,194.5
2019-01-01 02:00,50.6304483333333,-96.98077,4.2,5.6,237,1004.98,-25.3,68,0.37,0.0,1036.14,360.0
2019-01-01 02:10,50.6304483333333,-96.98077,3.7,5.0,233,1004.89,-25.5,69,0.37,0.0,1036.07,360.0
2019-01-01 02:20,50.6304483333333,-96.9807683333333,4.0,5.2,239,1004.90,-25.6,70,0.38,0.0,1036.09,360.0
2019-01-01 02:30,50.6304483333333,-96.980765,4.5,5.6,236,1004.71,-25.6,70,0.42,0.0,1035.93,360.0
2019-01-01 02:40,50.6304483333333,-96.9807666666667,4.8,6.4,242,1004.64,-25.5,71,0.41,0.0,1035.86,360.0
2019-01-01 02:50,50.6304483333333,-96.9807666666667,5.0,6.5,243,1004.57,-25.5,70,0.40,0.0,1035.79,360.0
2019-01-01 03:00,50.6304483333333,-96.9807683333333,4.9,6.3,250,1004.52,-25.3,71,0.39,0.0,1035.73,12.6
2019-01-01 03:10,50.630445,-96.9807783333333,5.5,7.5,253,1004.59,-25.2,71,0.39,0.0,1035.81,12.6
2019-01-01 03:20,50.6304466666667,-96.98077,5.5,7.8,252,1004.71,-25.1,70,0.38,0.0,1035.93,12.6
2019-01-01 03:30,50.6304716666667,-96.9807833333333,5.1,7.3,252,1004.75,-25.2,71,0.38,0.0,1035.98,12.6
2019-01-01 03:40,50.6304483333333,-96.980765,5.4,7.5,260,1004.70,-25.1,71,0.38,0.0,1035.94,12.6
2019-01-01 03:50,50.6304483333333,-96.980765,5.4,7.0,264,1004.68,-25.0,71,0.38,0.0,1035.94,12.6
2019-01-01 04:00,50.63045,-96.9807816666667,6.4,9.0,255,1004.72,-25.2,71,0.41,0.0,1036.00,347.4
2019-01-01 04:10,50.6304416666667,-96.9807716666667,6.1,8.5,265,1004.72,-25.2,71,0.40,0.0,1036.00,347.4
2019-01-01 04:20,50.6304416666667,-96.98077,5.8,8.4,274,1004.58,-25.3,71,0.39,0.0,1035.87,347.4
2019-01-01 04:30,50.6304433333333,-96.9807716666667,6.2,8.5,275,1004.52,-25.3,72,0.38,0.0,1035.80,347.4
2019-01-01 04:40,50.630445,-96.98077,5.7,7.5,271,1004.53,-25.3,72,0.38,0.0,1035.81,347.4
2019-01-01 04:50,50.6304466666667,-96.9807683333333,5.4,8.6,253,1004.61,-25.5,72,0.38,0.0,1035.89,347.4
2019-01-01 05:00,50.6304466666667,-96.9807683333333,5.5,7.2,255,1004.52,-25.9,72,0.37,0.0,1035.82,0.0
2019-01-01 05:10,50.6304483333333,-96.9807666666667,5.5,7.3,255,1004.44,-25.7,72,0.37,0.0,1035.71,0.0
2019-01-01 05:20,50.63045,-96.9807683333333,5.8,7.3,259,1004.50,-25.6,72,0.36,0.0,1035.79,0.0
2019-01-01 05:30,50.63045,-96.9807683333333,5.7,7.5,256,1004.50,-25.6,72,0.36,0.0,1035.77,0.0
2019-01-01 05:40,50.6304616666667,-96.9807733333333,5.6,8.1,259,1004.46,-25.5,72,0.36,0.0,1035.72,0.0
2019-01-01 05:50,50.6304383333333,-96.9807716666667,5.6,8.1,259,1004.42,-25.6,72,0.35,0.0,1035.69,0.0
2019-01-01 06:00,50.6304483333333,-96.980775,5.8,8.2,265,1004.38,-25.6,72,0.35,0.0,1035.65,270.0
2019-01-01 06:10,50.63045,-96.9807583333333,6.0,8.6,267,1004.38,-25.5,72,0.35,0.0,1035.66,270.0
2019-01-01 06:20,50.630445,-96.980765,6.0,7.8,271,1004.42,-25.4,72,0.35,0.0,1035.69,270.0
2019-01-01 06:30,50.63045,-96.980765,5.5,7.6,262,1004.46,-25.3,71,0.35,0.0,1035.72,270.0
2019-01-01 06:40,50.6304533333333,-96.98077,5.5,7.3,255,1004.47,-25.3,71,0.35,0.0,1035.75,270.0
2019-01-01 06:50,50.6304533333333,-96.98077,6.4,7.8,247,1004.53,-25.7,71,0.34,0.0,1035.86,270.0
2019-01-01 07:00,50.6304533333333,-96.9807683333333,6.8,8.3,245,1004.55,-25.7,71,0.34,0.0,1035.86,90.0
2019-01-01 07:10,50.6304533333333,-96.9807683333333,7.0,9.0,247,1004.52,-25.7,71,0.34,0.0,1035.83,90.0
2019-01-01 07:20,50.630455,-96.9807683333333,6.8,8.5,244,1004.42,-25.6,71,0.34,0.0,1035.72,90.0
2019-01-01 07:30,50.6304816666667,-96.9808233333333,7.2,8.7,242,1004.49,-25.6,71,0.33,0.0,1035.79,90.0
2019-01-01 07:40,50.630465,-96.9807683333333,6.7,8.2,241,1004.56,-25.6,71,0.33,0.0,1035.87,90.0
2019-01-01 07:50,50.6304616666667,-96.9807616666667,6.4,8.3,240,1004.48,-25.9,71,0.33,0.0,1035.80,90.0
2019-01-01 08:00,50.630465,-96.9807583333333,6.3,7.9,243,1004.35,-25.9,71,0.33,0.0,1035.66,360.0
2019-01-01 08:10,50.630465,-96.98076,6.9,8.5,245,1004.36,-25.9,71,0.33,0.0,1035.66,360.0
2019-01-01 08:20,50.630465,-96.98076,8.0,9.8,244,1004.46,-25.9,71,0.33,0.0,1035.76,360.0
2019-01-01 08:30,50.6304566666667,-96.98076,7.2,9.1,246,1004.37,-25.9,71,0.33,0.0,1035.67,360.0
2019-01-01 08:40,50.630465,-96.9807616666667,7.1,8.8,248,1004.36,-25.9,71,0.33,0.0,1035.69,360.0
2019-01-01 08:50,50.630465,-96.9807633333333,6.9,8.6,245,1004.39,-26.0,71,0.33,0.0,1035.72,360.0
2019-01-01 09:00,50.6304666666667,-96.9807683333333,7.9,9.6,241,1004.39,-26.1,71,0.32,0.0,1035.72,360.0
2019-01-01 09:10,50.6304666666667,-96.9807666666667,8.3,10.7,239,1004.42,-26.0,71,0.32,0.0,1035.76,360.0
2019-01-01 09:20,50.6304433333333,-96.9807816666667,7.6,9.6,239,1004.39,-26.2,71,0.31,0.0,1035.74,360.0
2019-01-01 09:30,50.6304483333333,-96.980765,7.9,9.7,238,1004.29,-26.4,71,0.31,0.0,1035.64,360.0
2019-01-01 09:40,50.6304466666667,-96.9807633333333,8.6,10.6,240,1004.35,-26.5,71,0.31,0.0,1035.72,360.0
2019-01-01 09:50,50.6304716666667,-96.9807866666667,8.2,10.2,238,1004.24,-26.5,70,0.31,0.0,1035.61,360.0
2019-01-01 10:00,50.6304666666667,-96.9807716666667,7.5,9.4,237,1004.02,-26.6,70,0.31,0.0,1035.40,360.0
2019-01-01 10:10,50.63048,-96.98078,8.3,10.5,241,1003.90,-26.5,71,0.31,0.0,1035.27,360.0
2019-01-01 10:20,50.6304716666667,-96.980785,7.7,9.3,246,1003.80,-26.7,70,0.30,0.0,1035.17,360.0
2019-01-01 10:30,50.6304633333333,-96.9807783333333,8.1,10.2,248,1003.63,-26.5,71,0.31,0.0,1034.98,360.0
2019-01-01 10:40,50.63046,-96.9807783333333,7.7,9.7,246,1003.44,-26.5,71,0.30,0.0,1034.79,360.0
2019-01-01 10:50,50.6304583333333,-96.9807766666667,8.3,11.2,247,1003.33,-26.4,71,0.30,0.0,1034.68,360.0
2019-01-01 11:00,50.63046,-96.9807733333333,8.0,10.1,247,1003.23,-26.4,71,0.29,0.0,1034.58,216.6
2019-01-01 11:10,50.6304516666667,-96.98078,7.1,8.8,243,1003.07,-26.6,71,0.29,0.0,1034.44,216.6
2019-01-01 11:20,50.63047,-96.9807733333333,7.3,9.8,250,1003.04,-26.5,71,0.29,0.0,1034.41,216.6
2019-01-01 11:30,50.6304616666667,-96.9807566666667,8.3,11.0,253,1003.20,-26.3,71,0.30,0.0,1034.57,216.6
2019-01-01 11:40,50.6304616666667,-96.9807533333333,7.0,8.7,242,1003.17,-26.7,71,0.30,0.0,1034.56,216.6
2019-01-01 11:50,50.6304616666667,-96.9807533333333,6.4,7.9,241,1003.16,-26.9,71,0.30,0.0,1034.57,216.6
2019-01-01 12:00,50.63046,-96.980755,6.0,7.8,233,1003.17,-26.9,71,0.30,0.0,1034.57,165.5
2019-01-01 12:10,50.6304583333333,-96.9807583333333,5.2,7.1,227,1003.08,-27.0,70,0.30,0.0,1034.50,165.5
2019-01-01 12:20,50.6304566666667,-96.98076,3.8,5.4,199,1002.87,-27.1,70,0.29,0.0,1034.28,165.5
2019-01-01 12:30,50.63044,-96.98077,3.5,4.4,206,1002.90,-27.2,70,0.29,0.0,1034.31,165.5
2019-01-01 12:40,50.63045,-96.9807733333333,3.0,3.5,203,1002.90,-27.4,70,0.29,0.0,1034.32,165.5
2019-01-01 12:50,50.630465,-96.9807683333333,2.8,3.5,206,1002.99,-27.3,70,0.28,0.0,1034.41,165.5
2019-01-01 13:00,50.63046,-96.98076,1.9,2.4,196,1003.02,-27.4,70,0.29,0.0,1034.45,143.4
2019-01-01 13:10,50.6304566666667,-96.9807666666667,2.7,3.7,188,1003.02,-27.6,71,0.29,0.0,1034.47,143.4
2019-01-01 13:20,50.6304583333333,-96.9807716666667,3.6,5.1,214,1003.22,-27.7,72,0.29,0.0,1034.66,143.4
2019-01-01 13:30,50.6304583333333,-96.9807716666667,4.3,5.9,206,1003.35,-27.6,71,0.30,0.0,1034.82,143.4
2019-01-01 13:40,50.6304583333333,-96.9807733333333,3.0,3.9,179,1003.19,-27.5,70,0.30,0.0,1034.66,143.4
2019-01-01 13:50,50.6304583333333,-96.980775,4.1,5.4,173,1002.95,-27.7,70,0.30,0.0,1034.43,143.4
2019-01-01 14:00,50.6304566666667,-96.980775,4.6,5.6,161,1002.62,-28.0,70,0.30,0.0,1034.11,360.0
2019-01-01 14:10,50.6304583333333,-96.980775,5.2,6.6,167,1002.32,-28.3,70,0.30,0.0,1033.83,360.0
2019-01-01 14:20,50.6304666666667,-96.9807566666667,4.2,5.3,168,1002.26,-28.4,70,0.30,0.0,1033.77,360.0
2019-01-01 14:30,50.6304583333333,-96.980775,6.0,7.7,167,1001.94,-28.2,70,0.30,0.0,1033.45,360.0
2019-01-01 14:40,50.6304583333333,-96.9807666666667,6.7,7.7,178,1001.75,-28.0,69,0.30,0.0,1033.23,360.0
2019-01-01 14:50,50.6304533333333,-96.9807633333333,6.5,7.8,168,1001.52,-27.8,69,0.30,0.0,1032.99,360.0
2019-01-01 15:00,50.6304516666667,-96.980765,6.9,8.0,166,1001.42,-27.5,69,0.30,0.0,1032.88,228.3
2019-01-01 15:10,50.630455,-96.9807683333333,7.3,8.8,164,1001.25,-27.3,68,0.30,0.0,1032.70,228.3
2019-01-01 15:20,50.6304566666667,-96.9807683333333,6.0,7.4,172,1001.26,-27.3,67,0.29,0.0,1032.70,228.3
2019-01-01 15:30,50.6304566666667,-96.9807666666667,5.9,7.2,174,1001.20,-27.3,67,0.29,0.0,1032.62,228.3
2019-01-01 15:40,50.6304566666667,-96.9807683333333,6.0,8.1,177,1001.11,-27.0,67,0.30,0.0,1032.54,228.3
2019-01-01 15:50,50.6304566666667,-96.9807683333333,8.9,12.3,178,1000.66,-26.5,66,0.30,0.0,1032.06,228.3
2019-01-01 16:00,50.630455,-96.98077,10.5,13.8,183,1000.41,-26.0,65,0.29,0.0,1031.78,192.6
2019-01-01 16:10,50.630455,-96.98077,10.3,14.1,186,1000.23,-25.8,64,0.28,0.0,1031.60,192.6
2019-01-01 16:20,50.630455,-96.98077,11.6,15.1,188,999.94,-25.6,64,0.28,0.0,1031.27,192.6
2019-01-01 16:30,50.6304566666667,-96.98077,11.9,15.5,189,999.71,-25.5,64,0.28,0.0,1031.01,192.6
2019-01-01 16:40,50.6304566666667,-96.98077,9.0,12.6,191,999.54,-25.2,64,0.28,0.0,1030.81,192.6
2019-01-01 16:50,50.6304566666667,-96.98077,11.0,14.8,196,999.16,-24.6,63,0.28,0.0,1030.36,192.6
2019-01-01 17:00,50.6304583333333,-96.98077,11.5,15.2,196,998.84,-24.4,62,0.28,0.0,1030.00,12.6
2019-01-01 17:10,50.6304583333333,-96.98077,11.3,15.2,199,998.74,-24.2,62,0.30,0.0,1029.89,12.6
2019-01-01 17:20,50.630465,-96.9807683333333,11.0,14.3,199,998.53,-23.9,62,0.33,0.0,1029.65,12.6
2019-01-01 17:30,50.6304566666667,-96.98072,12.0,15.6,192,998.22,-23.9,62,0.35,0.0,1029.31,12.6
2019-01-01 17:40,50.6304616666667,-96.9807633333333,10.5,13.8,194,998.19,-23.7,62,0.34,0.0,1029.24,12.6
2019-01-01 17:50,50.63046,-96.98076,10.8,13.4,189,997.94,-23.3,62,0.33,0.0,1028.92,12.6
2019-01-01 18:00,50.6304383333333,-96.9807566666667,11.6,14.4,191,997.72,-23.0,61,0.32,0.0,1028.66,165.5
2019-01-01 18:10,50.63047,-96.98076,11.0,14.6,193,997.47,-22.7,61,0.31,0.0,1028.37,165.5
2019-01-01 18:20,50.6304583333333,-96.9807666666667,10.9,14.4,191,997.20,-22.4,61,0.31,0.0,1028.06,165.5
2019-01-01 18:30,50.6304566666667,-96.980765,10.4,13.3,191,996.97,-22.0,61,0.31,0.0,1027.79,165.5
2019-01-01 18:40,50.6304566666667,-96.980765,12.3,15.5,193,996.92,-21.7,60,0.31,0.0,1027.68,165.5
2019-01-01 18:50,50.6304566666667,-96.9807633333333,11.0,14.7,189,996.61,-21.4,60,0.31,0.0,1027.33,165.5
2019-01-01 19:00,50.630455,-96.980765,12.7,16.2,184,996.18,-21.2,60,0.31,0.0,1026.87,0.0
2019-01-01 19:10,50.630455,-96.9807666666667,13.6,16.3,183,995.92,-21.0,59,0.30,0.0,1026.57,0.0
2019-01-01 19:20,50.630455,-96.9807666666667,13.5,16.2,187,995.85,-20.8,59,0.30,0.0,1026.48,0.0
2019-01-01 19:30,50.630465,-96.9807783333333,12.6,15.2,187,995.77,-20.5,58,0.30,0.0,1026.37,0.0
2019-01-01 19:40,50.630455,-96.9807766666667,13.7,16.7,184,995.50,-20.4,58,0.30,0.0,1026.05,0.0
2019-01-01 19:50,50.630455,-96.9807716666667,14.1,17.9,184,995.24,-20.6,58,0.30,0.0,1025.78,0.0
2019-01-01 20:00,50.6304533333333,-96.980775,13.0,17.2,186,995.04,-20.5,59,0.30,0.0,1025.56,192.6
2019-01-01 20:10,50.6304516666667,-96.9807783333333,13.9,17.9,184,994.78,-20.3,58,0.30,0.0,1025.25,192.6
2019-01-01 20:20,50.63045,-96.9807783333333,13.9,19.2,183,994.50,-20.1,59,0.30,0.0,1024.93,192.6
2019-01-01 20:30,50.63045,-96.9807783333333,14.5,18.3,182,994.22,-19.9,58,0.30,0.0,1024.60,192.6
2019-01-01 20:40,50.63044,-96.9807766666667,12.5,17.1,184,994.06,-19.8,58,0.30,0.0,1024.41,192.6
2019-01-01 20:50,50.6304583333333,-96.9807733333333,12.6,16.8,185,993.94,-19.4,56,0.30,0.0,1024.25,192.6
2019-01-01 21:00,50.6304533333333,-96.9807716666667,14.1,18.2,188,994.00,-19.2,55,0.30,0.0,1024.29,311.7
2019-01-01 21:10,50.6304516666667,-96.9807683333333,14.5,19.5,188,993.98,-19.5,57,0.30,0.0,1024.28,311.7
2019-01-01 21:20,50.63045,-96.9807716666667,14.2,20.3,182,993.81,-19.8,58,0.31,0.0,1024.10,311.7
2019-01-01 21:30,50.63045,-96.980775,15.0,18.9,182,993.49,-19.7,58,0.31,0.0,1023.77,311.7
2019-01-01 21:40,50.6304483333333,-96.9807766666667,14.4,19.3,184,993.38,-19.6,58,0.30,0.0,1023.65,311.7
2019-01-01 21:50,50.6304466666667,-96.9807766666667,15.8,19.5,180,993.04,-19.6,58,0.30,0.0,1023.30,311.7
2019-01-01 22:00,50.6304466666667,-96.980775,16.6,20.6,178,992.78,-19.4,58,0.30,0.0,1023.01,228.3
2019-01-01 22:10,50.630445,-96.9808,17.4,22.0,174,992.40,-19.3,58,0.30,0.0,1022.59,228.3
2019-01-01 22:20,50.630445,-96.9807666666667,15.5,20.1,173,992.14,-19.2,58,0.31,0.0,1022.31,228.3
2019-01-01 22:30,50.6304433333333,-96.98077,16.5,21.9,172,991.73,-19.1,58,0.31,0.0,1021.87,228.3
2019-01-01 22:40,50.6304416666667,-96.9807716666667,17.0,20.2,168,991.14,-19.2,59,0.31,0.0,1021.25,228.3
2019-01-01 22:50,50.63044,-96.98077,15.7,19.3,169,991.01,-19.2,60,0.31,0.0,1021.11,228.3
2019-01-01 23:00,50.6304316666667,-96.9807666666667,15.6,18.7,167,990.83,-19.4,61,0.32,0.0,1020.95,152.4
2019-01-01 23:10,50.6304383333333,-96.9807683333333,14.7,18.1,167,990.65,-19.6,63,0.32,0.0,1020.80,152.4
2019-01-01 23:20,50.6304416666667,-96.9807716666667,13.7,17.0,172,990.58,-19.7,63,0.33,0.0,1020.72,152.4
2019-01-01 23:30,50.6304483333333,-96.98077,16.7,19.7,167,989.89,-19.7,63,0.33,0.0,1020.00,152.4
2019-01-01 23:40,50.6304433333333,-96.980765,16.9,21.5,166,989.48,-19.8,63,0.33,0.0,1019.58,152.4
